When you browse on this site, cookies collect data to enhance your experience and personalize the content and advertising you see.
Visit our Privacy Policy to learn more. By continuing to use the site, you agree to this use of cookies and data.
  • In Austria
  • List of Countries
  • For 7 days
  • Water Temperature
  • Weather Map
  • News
  • Weather Widgets
  • user-avatar
    Login

    Hourly Weather Asten

    Today, 19 February, Wednesday

    Time Temperature Precipitation Wind Pressure Humidity
    00:00 +3°C° 0 mm 2 mps 745 mmHg 84%
    01:00 +3°C° 0 mm 2 mps 745 mmHg 84%
    02:00 +3°C° 0 mm 2 mps 744 mmHg 85%
    03:00 +4°C° 0 mm 1 mps 743 mmHg 85%
    04:00 +3°C° 0 mm 1 mps 743 mmHg 85%
    05:00 +3°C° 0 mm 1 mps 743 mmHg 85%
    06:00 +3°C° 0 mm 1 mps 742 mmHg 85%
    07:00 +3°C° 0 mm 1 mps 742 mmHg 84%
    08:00 +4°C° 0 mm 1 mps 742 mmHg 80%
    09:00 +5°C° 0 mm 1 mps 741 mmHg 75%
    10:00 +5°C° 0 mm 2 mps 741 mmHg 71%
    11:00 +5°C° 0.1 mm 3 mps 740 mmHg 72%
    12:00 +5°C° 0.1 mm 5 mps 740 mmHg 73%
    13:00 +4°C° 0.1 mm 6 mps 740 mmHg 74%
    14:00 +4°C° 0.4 mm 6 mps 740 mmHg 76%
    15:00 +3°C° 0.4 mm 5 mps 740 mmHg 78%
    16:00 +3°C° 0.4 mm 5 mps 740 mmHg 80%
    17:00 +2°C° 0.7 mm 5 mps 741 mmHg 82%
    18:00 +2°C° 0.7 mm 5 mps 741 mmHg 85%
    19:00 +1°C° 0.7 mm 6 mps 742 mmHg 88%
    20:00 +1°C° 0.1 mm 5 mps 743 mmHg 87%
    21:00 0°C° 0.1 mm 5 mps 743 mmHg 85%
    22:00 0°C° 0.1 mm 4 mps 744 mmHg 84%
    23:00 0°C° 0 mm 4 mps 744 mmHg 85%

    Tomorrow, 20 February, Thursday

    Time Temperature Precipitation Wind Pressure Humidity
    00:00 0°C° 0 mm 3 mps 744 mmHg 85%
    01:00 0°C° 0 mm 3 mps 744 mmHg 85%
    02:00 0°C° 0 mm 3 mps 744 mmHg 86%
    03:00 +1°C° 0 mm 2 mps 744 mmHg 86%
    04:00 -1°C° 0 mm 2 mps 743 mmHg 87%
    05:00 +1°C° 0.1 mm 2 mps 743 mmHg 89%
    06:00 +1°C° 0.1 mm 2 mps 743 mmHg 91%
    07:00 +1°C° 0.1 mm 2 mps 743 mmHg 93%
    08:00 +2°C° 0.1 mm 2 mps 743 mmHg 93%
    09:00 +2°C° 0.1 mm 2 mps 743 mmHg 93%
    10:00 +3°C° 0.1 mm 2 mps 743 mmHg 93%
    11:00 +4°C° 0.1 mm 2 mps 743 mmHg 91%
    12:00 +4°C° 0.1 mm 2 mps 742 mmHg 89%
    13:00 +5°C° 0.1 mm 2 mps 742 mmHg 88%
    14:00 +6°C° 0 mm 1 mps 741 mmHg 86%
    15:00 +7°C° 0 mm 1 mps 741 mmHg 84%
    16:00 +7°C° 0 mm 1 mps 741 mmHg 82%
    17:00 +6°C° 0 mm 1 mps 741 mmHg 85%
    18:00 +5°C° 0 mm 1 mps 741 mmHg 88%
    19:00 +4°C° 0 mm 1 mps 741 mmHg 92%
    20:00 +4°C° 0 mm 1 mps 741 mmHg 91%
    21:00 +4°C° 0 mm 1 mps 741 mmHg 90%
    22:00 +3°C° 0 mm 1 mps 740 mmHg 89%
    23:00 +3°C° 0 mm 1 mps 740 mmHg 88%

    Day after tomorrow, 21 February, Friday

    Time Temperature Precipitation Wind Pressure Humidity
    00:00 +3°C° 0 mm 1 mps 741 mmHg 88%
    01:00 +3°C° 0 mm 1 mps 741 mmHg 88%
    02:00 +4°C° 0 mm 1 mps 741 mmHg 86%
    03:00 +3°C° 0 mm 2 mps 740 mmHg 85%
    04:00 +3°C° 0 mm 3 mps 740 mmHg 84%
    05:00 +4°C° 0.3 mm 4 mps 741 mmHg 85%
    06:00 +3°C° 0.3 mm 5 mps 742 mmHg 86%
    07:00 +4°C° 0.3 mm 7 mps 742 mmHg 87%
    14:00 +4°C° 0 mm 6 mps 747 mmHg 57%
    15:00 +4°C° 0 mm 6 mps 747 mmHg 58%
    16:00 +3°C° 0 mm 5 mps 747 mmHg 58%
    17:00 +3°C° 0 mm 4 mps 748 mmHg 64%
    18:00 +2°C° 0 mm 3 mps 748 mmHg 69%
    19:00 +2°C° 0 mm 2 mps 749 mmHg 75%
    20:00 +2°C° 0 mm 2 mps 749 mmHg 77%
    21:00 +2°C° 0 mm 2 mps 750 mmHg 79%
    22:00 +1°C° 0 mm 2 mps 750 mmHg 81%
    23:00 +1°C° 0 mm 2 mps 750 mmHg 81%

    22 February, Saturday

    Time Temperature Precipitation Wind Pressure Humidity
    00:00 +2°C° 0 mm 1 mps 749 mmHg 82%
    01:00 +2°C° 0 mm 1 mps 749 mmHg 83%
    02:00 +2°C° 0 mm 1 mps 749 mmHg 82%
    03:00 +2°C° 0 mm 1 mps 749 mmHg 81%
    04:00 +2°C° 0 mm 1 mps 749 mmHg 80%
    05:00 +2°C° 0 mm 1 mps 749 mmHg 80%
    06:00 +2°C° 0 mm 1 mps 749 mmHg 80%
    07:00 +2°C° 0 mm 1 mps 749 mmHg 81%
    08:00 +3°C° 0 mm 1 mps 749 mmHg 74%
    09:00 +4°C° 0 mm 2 mps 749 mmHg 68%
    10:00 +5°C° 0 mm 2 mps 748 mmHg 61%
    11:00 +5°C° 0 mm 3 mps 748 mmHg 58%
    12:00 +8°C° 0 mm 3 mps 748 mmHg 55%
    13:00 +8°C° 0 mm 4 mps 747 mmHg 52%
    14:00 +9°C° 0 mm 3 mps 747 mmHg 54%
    15:00 +9°C° 0 mm 3 mps 747 mmHg 56%
    16:00 +9°C° 0 mm 2 mps 746 mmHg 58%
    17:00 +8°C° 0 mm 2 mps 746 mmHg 63%
    18:00 +6°C° 0 mm 2 mps 747 mmHg 67%
    19:00 +6°C° 0 mm 1 mps 747 mmHg 72%
    20:00 +6°C° 0 mm 1 mps 747 mmHg 72%
    21:00 +4°C° 0 mm 2 mps 747 mmHg 72%
    22:00 +4°C° 0 mm 2 mps 747 mmHg 73%
    23:00 +4°C° 0 mm 2 mps 747 mmHg 71%

    23 February, Sunday

    Time Temperature Precipitation Wind Pressure Humidity
    00:00 +4°C° 0 mm 2 mps 747 mmHg 70%
    01:00 +4°C° 0 mm 2 mps 746 mmHg 68%
    02:00 +4°C° 0 mm 2 mps 746 mmHg 68%
    03:00 +4°C° 0 mm 2 mps 746 mmHg 68%
    04:00 +3°C° 0 mm 3 mps 746 mmHg 68%
    05:00 +3°C° 0 mm 3 mps 746 mmHg 67%
    06:00 +4°C° 0 mm 3 mps 746 mmHg 66%
    07:00 +4°C° 0 mm 3 mps 746 mmHg 64%
    08:00 +5°C° 0 mm 3 mps 746 mmHg 66%
    09:00 +5°C° 0 mm 3 mps 746 mmHg 67%
    10:00 +6°C° 0 mm 2 mps 745 mmHg 68%
    11:00 +7°C° 0 mm 2 mps 745 mmHg 67%
    12:00 +8°C° 0 mm 2 mps 744 mmHg 65%
    13:00 +8°C° 0 mm 2 mps 744 mmHg 63%
    14:00 +9°C° 0 mm 2 mps 743 mmHg 64%
    15:00 +9°C° 0 mm 2 mps 743 mmHg 65%
    16:00 +10°C° 0 mm 2 mps 742 mmHg 66%
    17:00 +9°C° 0 mm 2 mps 742 mmHg 67%
    18:00 +9°C° 0 mm 3 mps 742 mmHg 68%
    19:00 +9°C° 0 mm 3 mps 742 mmHg 70%
    20:00 +8°C° 0 mm 4 mps 741 mmHg 66%
    21:00 +9°C° 0 mm 5 mps 741 mmHg 62%
    22:00 +9°C° 0 mm 5 mps 741 mmHg 59%
    23:00 +9°C° 0 mm 6 mps 741 mmHg 60%

    24 February, Monday

    Time Temperature Precipitation Wind Pressure Humidity
    00:00 +9°C° 0 mm 6 mps 740 mmHg 62%
    01:00 +8°C° 0 mm 7 mps 740 mmHg 64%
    02:00 +9°C° 0.1 mm 8 mps 740 mmHg 67%
    03:00 +9°C° 0.1 mm 8 mps 740 mmHg 70%
    04:00 +8°C° 0.1 mm 9 mps 740 mmHg 72%
    05:00 +8°C° 0.5 mm 9 mps 741 mmHg 76%
    06:00 +9°C° 0.5 mm 8 mps 742 mmHg 80%
    07:00 +9°C° 0.5 mm 7 mps 743 mmHg 84%
    08:00 +8°C° 0.6 mm 7 mps 744 mmHg 82%
    09:00 +7°C° 0.6 mm 6 mps 745 mmHg 80%
    10:00 +6°C° 0.6 mm 5 mps 746 mmHg 78%
    11:00 +7°C° 0.1 mm 4 mps 746 mmHg 74%
    12:00 +7°C° 0.1 mm 4 mps 746 mmHg 70%
    13:00 +7°C° 0.1 mm 4 mps 747 mmHg 65%
    14:00 +7°C° 0 mm 4 mps 747 mmHg 66%
    15:00 +7°C° 0 mm 4 mps 747 mmHg 66%
    16:00 +8°C° 0 mm 3 mps 747 mmHg 67%
    17:00 +5°C° 0 mm 3 mps 747 mmHg 73%
    18:00 +5°C° 0 mm 2 mps 747 mmHg 80%
    19:00 +5°C° 0 mm 1 mps 747 mmHg 86%
    20:00 +5°C° 0 mm 1 mps 747 mmHg 87%
    21:00 +5°C° 0 mm 1 mps 747 mmHg 88%
    22:00 +5°C° 0 mm 1 mps 747 mmHg 89%
    23:00 +5°C° 0 mm 1 mps 746 mmHg 89%
    Show more